星链-32449 (STARLINK-32449)

导读

STARLINK-32449是美国太空探索技术公司SpaceX于2024年10月26日发射的星链(Starlink)卫星,属于Starlink卫星互联网星座的一部分。星链计划旨在构建全球卫星互联网络,为全球偏远地区、海洋空域等网络覆盖空白区域提供高速卫星互联网接入服务,截至2025年,活跃星链卫星已超9000颗,服务覆盖全球超155个国家和地区。STARLINK-32449的入轨进一步扩充了星链星座的网络容量与全球覆盖能力。

Basic Information
目录编号:
61670
目录名称:
STARLINK-32449
国际标识:
2024-193K
轨道中心:
EARTH
卫星名称:
星链-32449
卫星全名:
星链-32449 (STARLINK-32449)
卫星状态:
在轨 (已飞行678 天)
发射日期:
2024-10-26 UTC
国别 :
美国 (US)
星等 :
--
Orbit Information
数据来源 国际轨道数据
星历时间: 2026-09-04T02:36:35+0800
11小时前
查看轨道信息
半长轴: 6848.887km
偏心率: 0.0001037
轨道倾角: 53.160°
近地点辐角 99.323°
升交点赤经 343.021°
平近点角 260.788°
近地点: 470.039km
远地点: 471.461km
周期: 94.013分钟
每日圈数: 15.316968
Detailed Information
固有亮度:
5
最大亮度:
2.5
卫星平台:
Starlink V1.0
覆盖范围:
全球
运营商:
太空探索技术公司
运营商所在国:
美国
制造商(研发单位):
太空探索技术公司
制造商所在国:
美国
使用方式:
暂无
Satellite Introduction
Starlink 计划是 SpaceX 推出的全球卫星互联网项目,通过发射低轨道卫星,为全球尤其是偏远地区提供高速、低延迟的互联网服务。自 2019 年起,Starlink 已部署数千颗卫星,旨在缩小全球数字鸿沟,推动互联网普及。该项目还为军事、航空等行业提供通信支持,带来广泛经济效益。
2D Orbit Map
3D Orbit Map
Orbit Altitude Analysis Chart
Orbit Inclination Analysis Chart
Orbit Comprehensive Analysis Chart
View Comprehensive Chart
Conjunction Data List
Event ID Objects TCA Miss Dist (km) Collision Risk Probability Collision Risk Index (CRI) Action
CDM_260904-011106-167006-489022
OBJECT Q (64890)
2026-09-04T
01:11:33+0000
1.666 km
极远距离
4.4918E-6 低风险 0.48
CDM_260829-173406-167006-862621
2026-08-29T
17:34:05+0000
2.424 km
极远距离
1.473204E-6 低风险 0.38
CDM_260904-015806-167006-489022
OBJECT Q (64890)
2026-09-04T
01:58:34+0000
2.765 km
极远距离
1.40481E-6 低风险 0.38
CDM_260905-022706-167006-878221
2026-09-05T
02:27:03+0000
2.854 km
极远距离
1.029399E-6 低风险 0.35